Regional Weather Roundup
Issued by NWS New Orleans/Baton Rouge, LA

Home | Current Version | Previous Version | Text Only | Print | Product List | Glossary On
Versions: 1 2 3 4 5 6 7 8 9 10 11 12 13 14 15 16 17 18 19 20 21 22 23 24 25 26 27 28 29 30 31 32 33 34 35 36 37 38 39 40 41 42 43 44 45 46 47 48 49 50
937
ASUS44 KLIX 260023
RWRLIX
NEW ORLEANS REGIONAL WEATHER ROUNDUP
NATIONAL WEATHER SERVICE NEW ORLEANS LA
700 PM CDT WED MAR 25 2015

NOTE: "FAIR" INDICATES FEW OR NO CLOUDS BELOW 12,000 FEET WITH NO
      SIGNIFICANT WEATHER AND/OR OBSTRUCTIONS TO VISIBILITY.
      SKY/WX - SKY CONDITION AND SIGNIFICANT WEATHER.
      TMP - AIR TEMPERATURE.     DP    - DEWPOINT TEMPERATURE.
      RH  - RELATIVE HUMIDITY.   PRES  - PRESSURE.
      HI  - HEAT INDEX.          WCI   - WIND CHILL INDEX.

*  THESE STATIONS ARE NOT NWS OR FAA STATIONS AND ARE NOT UNDER
   NWS QUALITY CONTROL.

LAZ038-040-048-061>063-065>067-069-260100-
SOUTHEAST LOUISIANA

CITY           SKY/WX    TMP DP  RH WIND       PRES   REMARKS
N.O. AUDUBON   NOT AVBL
N.O. INTL ARPT MOCLDY    72  57  59 S10       29.99S
6HR MIN TEMP:  72; 6HR MAX TEMP:  77;

N.O. LAKEFRONT   N/A     74  57  55 SE9       30.00S
6HR MIN TEMP:  74; 6HR MAX TEMP:  78;

SLIDELL          N/A     72  61  68 SE6       30.00S
6HR MIN TEMP:  72; 6HR MAX TEMP:  80;

BATON ROUGE      N/A     73  58  59 SE8       29.97F
6HR MIN TEMP:  73; 6HR MAX TEMP:  80;

BOOTHVILLE       N/A     70  62  76 E5        30.01S
6HR MIN TEMP:  70; 6HR MAX TEMP:  77;

BELLE CHASSE   MOCLDY    72  57  59 SE7       29.99S
6HR MIN TEMP:  72; 6HR MAX TEMP:  78;

BOGALUSA*        N/A     75  57  53 SE8       30.00S
6HR MIN TEMP:  77; 6HR MAX TEMP:  83;

GALLIANO*        N/A     72  61  68 CALM      30.01R
6HR MIN TEMP:  73; 6HR MAX TEMP:  79;

NEW ROADS*       N/A     73  56  56 SE6       29.96S
6HR MIN TEMP:  73; 6HR MAX TEMP:  78;

GONZALES*        N/A     73  56  56 SE6       29.98S
6HR MIN TEMP:  73; 6HR MAX TEMP:  79;

HAMMOND*         N/A     72  55  56 SE6       30.00F
HOUMA*         MOCLDY    71  60  68 SE6       29.99S
PORT FOURCHON* CLEAR     72  64  78 SE10      30.03S

$$

MSZ070-080>082-260100-
SOUTHERN MISSISSIPPI

CITY           SKY/WX    TMP DP  RH WIND       PRES   REMARKS
MCCOMB           N/A     73  56  54 S8        29.97F
6HR MIN TEMP:  73; 6HR MAX TEMP:  79;

GULFPORT         N/A     70  64  81 SE10      30.01S
6HR MIN TEMP:  70; 6HR MAX TEMP:  76;

BILOXI           N/A     70  65  86 SE7       30.01F
6HR MIN TEMP:  70; 6HR MAX TEMP:  76;

PASCAGOULA       N/A     69  64  84 SE9       30.02F
6HR MIN TEMP:  69; 6HR MAX TEMP:  77;

STENNIS ARPT*  CLEAR     72  57  60 SE5       30.01F

$$

COASTAL OBSERVATIONS
LAKE AND NEARSHORE STATIONS

STATION/POSITION TIME  TEMP    WIND        PRES    WAVE
                       AIR SEA DIR/SP/G            HT/PER
                 (UTC) (F)     (DEG/KT/KT) (MB)    (FT/S)
PASCAGOULA       0000   70     140/  4/ 10 1016.2
WAVELAND YACHT   0000   71 72  160/  8/ 10 1016.0
GRAND ISLE       0000   71 72  110/  5/  8 1015.8
SOUTHWEST PASS   0000   68 52  120/  9/  9 1016.4
NEW CANAL        0000   73     150/  2/  5 1016.1
SHELL BEACH      0000   71 73  140/  8/ 10 1015.9

OFFSHORE STATIONS

STATION/POSITION TIME  TEMP    WIND        PRES    WAVE
                       AIR SEA DIR/SP/G            HT/PER
                 (UTC) (F)     (DEG/KT/KT) (MB)    (FT/S)
64 S DAUPHIN ISL 2350   73 76  140/ 10/ 10 1016.6    2/ 5

$$




USA.gov is the U.S. government's official web portal to all federal, state and local government web resources and services.